Flag for U.S.A. Weather past 2 weeks in Denver, Colorado, U.S.A.

Now
59 °F

Passing clouds.


Feels Like: 55 °F
Forecast: 47 / 74 °F
Wind: 23 mph from South

Location: Buckley Air Force Base

Current Time: Oct 20, 2014 at 10:14:41 PM

Latest Report: Oct 20, 2014 at 9:58 PM


Visibility: 10 mi

Pressure: 29.93 "Hg

Humidity: 45%

Dew point: 37 °F

Location of DenverLocation

Historic Weather in Denver — Graph

°F

Denver temperature yesterday

Maximum temperature yesterday: 72 °F (at 3:58 PM)
Minimum temperature yesterday: 45 °F (at 6:58 AM)
Average temperature yesterday: 57 °F

Past Weeks' High & Low Weather Summary

 TemperatureHumidityPressure
High78 °F (Oct 15, 1:58 PM)100% (Oct 9, 5:58 PM)30.21 "Hg (Oct 9, 5:58 PM)
Low36 °F (Oct 13, 5:58 AM)14% (Oct 15, 1:58 PM)29.59 "Hg (Oct 12, 3:58 AM)
Average55 °F53%29.97 "Hg
* Reported Oct 5 7:58 PM — Oct 20 7:58 PM, Denver, Weather by CustomWeather, © 2014

Note: Actual official high and low records may vary slightly from our data, if they occured in-between our weather recording intervals... More about our weather records

Advertising

Denver weather history for previous 24 hours

 ConditionsComfort  
Time TempWeatherWind HumidityBarometerVisibility
7:58 PM
Oct 20
61 °FPassing clouds.22 mph37%29.94 "Hg10 mi
6:58 PM64 °FPassing clouds.20 mph33%29.94 "Hg10 mi
5:58 PM66 °FPassing clouds.14 mph30%29.91 "Hg10 mi
4:58 PM71 °FPassing clouds.21 mph27%29.91 "Hg10 mi
3:58 PM74 °FPassing clouds.17 mph25%29.90 "Hg10 mi
2:58 PM75 °FPassing clouds.16 mph24%29.91 "Hg10 mi
1:58 PM74 °FPassing clouds.16 mph25%29.92 "Hg10 mi
12:58 PM73 °FPassing clouds.16 mph25%29.96 "Hg10 mi
11:58 AM72 °FPassing clouds.12 mph26%29.99 "Hg10 mi
10:58 AM69 °FPassing clouds.13 mph30%30.01 "Hg10 mi
9:58 AM63 °FPassing clouds.12 mph41%30.05 "Hg10 mi
8:58 AM56 °FSunny.10 mph52%30.06 "Hg10 mi
7:58 AM48 °FClear.7 mph66%30.08 "Hg10 mi
6:58 AM48 °FPassing clouds.5 mph65%30.07 "Hg10 mi
5:58 AM49 °FClear.10 mph62%30.03 "Hg10 mi
4:58 AM49 °FClear.12 mph64%30.01 "Hg10 mi
3:58 AM50 °FPassing clouds.8 mph61%30.01 "Hg10 mi
2:58 AM50 °FPassing clouds.10 mph61%30.01 "Hg10 mi
1:58 AM51 °FPassing clouds.9 mph59%30.00 "Hg10 mi
12:58 AM48 °FPassing clouds.6 mph61%30.03 "Hg10 mi
11:58 PM
Oct 19
50 °FPassing clouds.7 mph55%30.03 "Hg10 mi
10:58 PM53 °FPassing clouds.9 mph50%30.03 "Hg10 mi
Weather by CustomWeather, © 2014

See weather overviewHow to use our weather pages